Overview Statistics Trail Chart Weather Telemetry Raw packets
 

This is the latest recevied weather packets stored in our database for station/object N9DMT-13. If no packets are shown the sender has not sent any weather packets the latest 10 day(s).

<< 30 31 32 33 34 35 36 >>
Time Temp. Humidity Pressure Rain* Wind** Luminosity Snow
1777682639 9.44° C 38% 985.6 hPa 0 mm - - -
1777682338 9.44° C 37% 985.4 hPa 0 mm - - -
1777682037 10° C 37% 985.5 hPa 0 mm - - -
1777681737 10° C 37% 985.4 hPa 0 mm - - -
1777681436 10° C 37% 985.3 hPa 0 mm - - -
1777681136 10° C 37% 985.2 hPa 0 mm - - -
1777680835 10° C 40% 985.1 hPa 0 mm - - -
1777680534 10° C 35% 985.4 hPa 0 mm - - -
1777680233 10° C 35% 985.3 hPa 0 mm - - -
1777679931 10° C 36% 985.4 hPa 0 mm - - -
1777679630 10.56° C 36% 985.2 hPa 0 mm - - -
1777679330 10.56° C 35% 985.2 hPa 0 mm - - -
1777679029 10.56° C 36% 985.1 hPa 0 mm - - -
1777678728 10.56° C 37% 985.2 hPa 0 mm - - -
1777678427 10° C 37% 985.2 hPa 0 mm - - -
1777678126 10.56° C 36% 985.1 hPa 0 mm - - -
1777677826 10° C 36% 985.1 hPa 0 mm - - -
1777677525 10° C 36% 985.2 hPa 0 mm - - -
1777677224 10.56° C 36% 985.1 hPa 0 mm - - -
1777676923 10.56° C 35% 985 hPa 0 mm - - -
1777676622 10.56° C 34% 985 hPa 0 mm - - -
1777676321 11.11° C 35% 985.1 hPa 0 mm - - -
1777676021 11.11° C 36% 985.1 hPa 0 mm - - -
1777675720 11.67° C 37% 985 hPa 0 mm - - -
1777675420 12.22° C 31% 984.9 hPa 0 mm - - -

* Rain latest hour (hover to see other rain measurements)
** Current wind speed in m/s (hover to see current wind gust speed)